Regional Weather Roundup
Issued by NWS Bismarck, ND

Home | Current Version | Previous Version | Text Only | Print | Product List | Glossary On
Versions: 1 2 3 4 5 6 7 8 9 10 11 12 13 14 15 16 17 18 19 20 21 22 23 24 25 26 27 28 29 30 31 32 33 34 35 36 37 38 39 40 41 42 43 44 45 46 47 48 49 50
000
ASUS43 KBIS 292010
RWRBIS

NWR BROADCAST TEXT
NATIONAL WEATHER SERVICE BISMARCK ND
300 PM CDT FRI MAY 29 2015

NOTE: "FAIR" INDICATES FEW OR NO CLOUDS BELOW 12,000 FEET WITH NO
SIGNIFICANT WEATHER AND/OR OBSTRUCTIONS TO VISIBILITY.


CITY           SKY/WX    TMP DP  RH WIND       PRES   REMARKS
WILLISTON      SUNNY     56  32  40 N10G18    30.31F
MINOT          MOSUNNY   52  34  50 NW10G22   30.28F
MINOT AFB      MOSUNNY   53  38  56 N12G17    30.27F
BISMARCK       CLOUDY    54  35  48 N16G24    30.26S
DICKINSON      MOSUNNY   53  35  50 N7        30.27S
GARRISON         N/A     51  33  50 N10G21    30.28S
HETTINGER ARPT PTSUNNY   51  35  54 N14       30.29R
JAMESTOWN      PTSUNNY   54  39  57 N24G31    30.18S
BEACH          FAIR      54  32  43 N12G17    30.30S
CARRINGTON     MOCLDY    50  37  62 N16G26    30.24R
CROSBY         FAIR      54  32  43 N13G25    30.32F
HARVEY         MOCLDY    52  34  50 N13G22    30.25S
HAZEN          MOCLDY    52  34  50 N15       30.29F
LINTON         CLOUDY    54  37  54 N17G30    30.23S
MANDAN         CLOUDY    50  36  57 N15G24    30.27S
OAKES            N/A     50  45  81 N21       30.15S
STANLEY        FAIR      52  36  54 N9        30.30F
WATFORD CITY   FAIR      52  37  58 N9G18     30.29S
$$

CITY           SKY/WX    TMP DP  RH WIND       PRES   REMARKS
GRAND FORKS    PTSUNNY   53  39  59 N24G32    30.18S
GRAND FORKS AF PTSUNNY   53  36  53 N22G36    30.19S
DEVILS LAKE    MOSUNNY   52  34  50 N18G28    30.22S
FARGO          CLOUDY    52  41  66 N24G31    30.15S
CANDO          FAIR      54  32  43 N20       30.25S
CAVALIER       MOCLDY    50  36  57 N24G31    30.22
GRAFTON        FAIR      52  39  62 N22G29    30.20S
LANGDON        FAIR      54  36  50 N22G28    30.23S
ROLLA          FAIR      50  32  50 N16G25    30.25F
WALHALLA         N/A     52  32  46 MISG      30.24S
$$

CITY           SKY/WX    TMP DP  RH WIND       PRES   REMARKS
ABERDEEN       CLOUDY    52  42  69 N21G29    30.17R
MOBRIDGE       CLOUDY    53  40  61 N18G26    30.20R
BUFFALO          N/A     52  35  52 N10G18    30.22R
RAPID CITY     CLOUDY    50  45  83 N20       30.26S
GLASGOW        SUNNY     56  33  42 VRB3      30.31F
SIDNEY         SUNNY     57  30  35 NW8       30.30F
WOLF POINT     SUNNY     58  32  37 VRB3      30.31F
GLENDIVE       SUNNY     55  32  41 N7        30.31F
MILES CITY     SUNNY     59  30  33 MISG      30.29F
BAKER          MOSUNNY   57  34  41 N8        30.29F
$$

CITY           SKY/WX    TMP DP  RH WIND       PRES   REMARKS
BILLINGS       PTSUNNY   56  43  61 NE9       30.29F
GREAT FALLS    MOSUNNY   62  48  60 E9G20     30.18F
REGINA         MOSUNNY   54  21  28 N9G18     30.34F
ESTEVAN        MOSUNNY   54  34  47 NW10G21   30.31F
$$



USA.gov is the U.S. government's official web portal to all federal, state and local government web resources and services.